Flag for Canada Weather past 2 weeks in Kingston, Ontario, Canada

Now
57 °F

Scattered showers. Mostly cloudy.


Feels Like: 56 °F
Forecast: 60 / 76 °F
Wind: 7 mph from Southeast

Location: Kingston

Current Time: May 25, 2015 at 10:27:14 PM

Latest Report: May 25, 2015 at 9:00 PM


Visibility: 12 mi

Pressure: 29.97 "Hg

Humidity: 94%

Dew point: 55 °F

Location of KingstonLocation

Historic Weather in Kingston — Graph

°F

Kingston temperature yesterday

Maximum temperature yesterday: 75 °F (at 4:00 PM)
Minimum temperature yesterday: 48 °F (at 6:00 AM)
Average temperature yesterday: 60 °F

Past Weeks' High & Low Weather Summary

 TemperatureHumidityPressure
High75 °F (May 24, 4:00 PM)100% (May 12, 6:00 AM)30.47 "Hg (May 12, 6:00 AM)
Low30 °F (May 23, 6:00 AM)33% (May 22, 4:00 PM)29.73 "Hg (May 12, 6:00 AM)
Average56 °F70%30.07 "Hg
* Reported May 10 9:00 PM — May 25 9:00 PM, Kingston, Weather by CustomWeather, © 2015

Note: Actual official high and low records may vary slightly from our data, if they occured in-between our weather recording intervals... More about our weather records

Advertising

Kingston weather history for previous 24 hours

 ConditionsComfort  
Time TempWeatherWind HumidityBarometerVisibility
9:00 PM
Mon, May 25
57 °FScattered showers. Mostly cloudy.7 mph94%29.97 "Hg12 mi
8:00 PM61 °FCloudy.3 mph77%29.97 "Hg15 mi
7:00 PM61 °FCloudy.3 mph77%29.98 "Hg15 mi
6:00 PM61 °FCloudy.6 mph77%29.99 "Hg15 mi
5:00 PM64 °FCloudy.5 mph73%30.00 "Hg15 mi
4:00 PM64 °FMostly cloudy.7 mph73%30.01 "Hg15 mi
3:00 PM64 °FCloudy.6 mph68%30.03 "Hg15 mi
2:00 PM68 °FPartly sunny.10 mph64%30.04 "Hg15 mi
1:00 PM66 °FMore clouds than sun.7 mph78%30.06 "Hg15 mi
12:00 PM63 °FCloudy.6 mph83%30.10 "Hg15 mi
11:00 AM63 °FMostly cloudy.3 mph83%30.12 "Hg15 mi
10:00 AM57 °FLight rain. Mostly cloudy.8 mph88%30.14 "Hg15 mi
9:00 AM54 °FLight rain. Overcast.7 mph88%30.17 "Hg12 mi
8:00 AM59 °FLight rain. Mostly cloudy.2 mph94%30.17 "Hg15 mi
7:00 AM61 °FLight rain. Overcast.5 mph83%30.16 "Hg15 mi
6:00 AM61 °FSprinkles. Overcast.8 mph72%30.17 "Hg15 mi
11:00 PM
Sun, May 24
52 °FOvercast.2 mph88%30.14 "Hg15 mi
10:00 PM55 °FPassing clouds.5 mph67%30.14 "Hg15 mi
Weather by CustomWeather, © 2015

See weather overviewHow to use our weather pages